EW6394 Weather Reports


time (UTC)temp
C
wind
direction
speed
KPH
gust
KPH
rain 1hr
cm
rain 24hr
cm
rain mn
cm
humidity
%
barometer
mb
20260503211534 15 296 4.8 24.1 0.00 0.00 0.00 61 1013.4
20260503210022 15 284 1.6 14.5 0.00 0.00 0.00 62 1013.4
20260503204521 15 306 4.8 24.1 0.00 0.00 0.00 61 1013.5
20260503203022 15 290 6.4 27.4 0.00 0.00 0.00 63 1013.6
20260503201519 15 281 3.2 20.9 0.00 0.00 0.00 63 1013.6
20260503200018 15 300 8.0 17.7 0.00 0.00 0.00 64 1013.6
20260503194517 15 175 0.0 14.5 0.00 0.00 0.00 64 1014.0
20260503193031 15 161 1.6 12.9 0.00 0.00 0.00 63 1014.0
20260503191514 15 259 1.6 8.0 0.00 0.00 0.00 65 1013.9
20260503190020 14 285 0.0 19.3 0.00 0.00 0.00 67 1014.0
20260503184506 13 325 0.0 14.5 0.00 0.00 0.00 71 1014.1
20260503183004 13 294 1.6 9.7 0.00 0.00 0.00 72 1014.3
20260503181501 12 308 0.0 4.8 0.00 0.00 0.00 75 1014.3
20260503180101 12 332 0.0 12.9 0.00 0.00 0.00 78 1014.3
20260503174607 12 334 0.0 8.0 0.00 0.00 0.00 81 1014.3
20260503173055 11 256 0.0 6.4 0.00 0.00 0.00 82 1014.3
20260503171549 11 258 0.0 11.3 0.00 0.00 0.00 84 1014.3
20260503081607 10 297 0.0 3.2 0.00 0.00 0.00 88 1012.6
20260503071555 10 299 0.0 0.0 0.00 0.00 0.00 90 1012.2
20260503054551 10 309 0.0 0.0 0.00 0.00 0.00 92 1011.9
20260503053050 10 309 0.0 9.7 0.00 0.00 0.00 92 1011.7
20260503051550 10 241 0.0 9.7 0.00 0.00 0.00 92 1011.7
20260503050049 10 209 0.0 8.0 0.00 0.00 0.00 93 1011.4
20260503044553 10 194 4.8 22.5 0.00 0.00 0.00 92 1010.9
20260503043050 10 118 1.6 17.7 0.00 0.00 0.00 92 1010.9
20260503041548 10 354 4.8 17.7 0.00 0.00 0.00 92 1011.0
20260503040047 10 273 3.2 14.5 0.00 0.00 0.00 92 1010.7
20260503034600 10 193 1.6 17.7 0.00 0.00 0.00 91 1010.8
20260503033054 10 233 4.8 14.5 0.00 0.00 0.00 90 1010.9
20260503031551 10 240 1.6 12.9 0.00 0.00 0.00 89 1010.9
20260503030047 11 221 0.0 8.0 0.00 0.00 0.00 88 1010.8
20260503024549 11 232 0.0 9.7 0.00 0.00 0.00 88 1010.7
20260503023044 11 184 1.6 12.9 0.00 0.00 0.00 86 1010.7
20260503021544 12 169 3.2 9.7 0.00 0.00 0.00 84 1010.7
20260503020044 12 159 3.2 11.3 0.00 0.00 0.00 81 1010.6
20260503014545 13 215 0.0 17.7 0.00 0.00 0.00 81 1010.5
20260503013042 13 153 8.0 30.6 0.00 0.00 0.00 78 1010.3
20260503011546 13 3 0.0 11.3 0.00 0.00 0.00 79 1010.2
20260503010042 14 286 3.2 16.1 0.00 0.00 0.00 76 1010.3
20260503004541 15 279 1.6 17.7 0.00 0.00 0.00 76 1010.0
20260503003049 15 287 3.2 17.7 0.00 0.00 0.00 74 1010.2
20260503001558 16 290 0.0 19.3 0.00 0.00 0.00 72 1010.4
20260503000045 16 184 1.6 14.5 0.00 0.00 0.00 70 1010.4
20260502234543 16 168 0.0 4.8 0.00 0.00 0.00 71 1010.3
20260502233034 16 202 0.0 11.3 0.00 0.00 0.00 70 1010.5
20260502231533 16 148 3.2 20.9 0.00 0.00 0.00 70 1010.7
20260502230034 17 217 4.8 24.1 0.00 0.00 0.00 70 1011.1
20260502224528 16 231 4.8 22.5 0.00 0.00 0.00 72 1011.4
20260502223026 16 202 6.4 19.3 0.00 0.00 0.00 72 1011.7
20260502221526 17 233 3.2 14.5 0.00 0.00 0.00 71 1011.8
20260502220027 16 291 0.0 16.1 0.00 0.00 0.00 72 1012.0
20260502214518 16 151 3.2 24.1 0.00 0.00 0.00 73 1012.4
20260502213021 16 239 3.2 27.4 0.00 0.00 0.00 74 1012.6